Flag for Saint Vincent and Grenadines Weather past 2 weeks in Kingstown, Saint Vincent and Grenadines

Now
84 °F

Broken clouds.


Feels Like: 92 °F
Forecast: 81 / 84 °F
Wind: 18 mph from East

Location: Arnos Vale

Current Time: Jul 25, 2014 at 10:28:04 AM

Latest Report: Jul 25, 2014 at 10:00 AM


Visibility: N/A

Pressure: 30.04 "Hg

Humidity: 74%

Dew point: 75 °F

Location of KingstownLocation

Historic Weather in Kingstown — Graph

°F

Kingstown temperature yesterday

Maximum temperature yesterday: 88 °F (at 1:00 PM)
Minimum temperature yesterday: 79 °F (at 9:00 PM)
Average temperature yesterday: 84 °F

Past Weeks' High & Low Weather Summary

 TemperatureHumidityPressure
High88 °F (Jul 14, 5:00 PM)100% (Jul 11, 6:00 PM)30.12 "Hg (Jul 11, 6:00 PM)
Low75 °F (Jul 10, 3:00 PM)55% (Jul 20, 1:00 PM)29.95 "Hg (Jul 24, 3:00 PM)
Average83 °F77%30.04 "Hg
* Reported Jul 10 9:00 AM — Jul 25 9:00 AM, Kingstown, Weather by CustomWeather, © 2014

Note: Actual official high and low records may vary slightly from our data, if they occured in-between our weather recording intervals... More about our weather records

Advertising

Kingstown weather history for previous 24 hours

 ConditionsComfort  
Time TempWeatherWind HumidityBarometerVisibility
9:00 AM
Jul 25
84 °FScattered clouds.16 mph74%30.04 "HgN/A
8:00 AM82 °FPartly sunny.17 mph79%30.01 "HgN/A
7:00 AM82 °FBroken clouds.15 mph79%29.98 "HgN/A
6:00 AM81 °FBroken clouds.14 mph84%29.98 "HgN/A
2:00 AM81 °FPassing clouds.16 mph89%29.98 "HgN/A
1:00 AM81 °FPassing clouds.15 mph89%29.98 "HgN/A
12:00 AM81 °FSprinkles. Passing clouds.9 mph89%30.01 "HgN/A
11:00 PM
Jul 24
79 °FRain showers. Passing clouds.13 mph94%30.01 "HgN/A
10:00 PM79 °FSprinkles. Passing clouds.No wind89%30.04 "HgN/A
9:00 PM79 °FSprinkles. Passing clouds.13 mph89%30.01 "HgN/A
8:00 PM82 °FPassing clouds.13 mph79%30.01 "HgN/A
7:00 PM82 °FPassing clouds.9 mph79%29.98 "HgN/A
6:00 PM84 °FPassing clouds.10 mph70%29.95 "HgN/A
5:00 PM86 °FPassing clouds.10 mph70%29.95 "HgN/A
4:00 PM88 °FPassing clouds.14 mph66%29.95 "HgN/A
3:00 PM86 °FScattered clouds.14 mph70%29.95 "HgN/A
2:00 PM88 °FPassing clouds.13 mph66%29.98 "HgN/A
1:00 PM88 °FPassing clouds.13 mph62%30.01 "HgN/A
12:00 PM86 °FPassing clouds.14 mph66%30.01 "HgN/A
11:00 AM86 °FPassing clouds.14 mph70%30.04 "HgN/A
10:00 AM86 °FPassing clouds.14 mph75%30.04 "HgN/A
Weather by CustomWeather, © 2014

See weather overviewHow to use our weather pages